Location: Seasalter
(51.3333°N, 1.0167°E)
Time: 15:21:13
(UTC+00:00)

ATLAS 5 CENTAUR R/B - Pass Details

Date: 01 May 2024
Orbit: 421 x 1169 km, 63.3° (Epoch: 22 May)

Event Time Altitude Azimuth Distance (km) Brightness Sun altitude
Rises 23:14:34 0° 315° (NW) 2,872 5.8 -22.7°
Reaches altitude 10° 23:16:37 10° 315° (NW) 2,064 5.0 -22.7°
Maximum altitude 23:21:21 88° 42° (NE) 766 1.9 -22.9°
Enters shadow 23:22:51 50° 134° (SE) 1,010 2.2 -22.9°
